Flag for U.S.A. Weather past 2 weeks in Pullman, Washington, U.S.A.

Now
40 °F

Overcast.


Feels Like: 33 °F
Forecast: 33 / 41 °F
Wind: 12 mph from Southeast

Location: Pullman / Moscow Regional Airport

Current Time: Dec 19, 2014 at 12:19:30 AM

Latest Report: Dec 18, 2014 at 11:53 PM


Visibility: 10 mi

Pressure: 29.97 "Hg

Humidity: 83%

Dew point: 35 °F

Location of PullmanLocation

Historic Weather in Pullman — Graph

°F

Pullman temperature yesterday

Maximum temperature yesterday: 45 °F (at 12:53 PM)
Minimum temperature yesterday: 36 °F (at 1:53 AM)
Average temperature yesterday: 40 °F

Past Weeks' High & Low Weather Summary

 TemperatureHumidityPressure
High56 °F (Dec 10, 9:53 PM)100% (Dec 4, 9:53 PM)30.36 "Hg (Dec 4, 9:53 PM)
Low26 °F (Dec 4, 7:53 AM)53% (Dec 10, 9:53 PM)29.48 "Hg (Dec 11, 5:53 PM)
Average40 °F83%30.03 "Hg
* Reported Dec 3 10:53 PM — Dec 18 10:53 PM, Pullman, Weather by CustomWeather, © 2014

Note: Actual official high and low records may vary slightly from our data, if they occured in-between our weather recording intervals... More about our weather records

Advertising

Pullman weather history for previous 24 hours

 ConditionsComfort  
Time TempWeatherWind HumidityBarometerVisibility
10:53 PM
Dec 18
41 °FOvercast.10 mph80%29.99 "Hg10 mi
9:53 PM41 °FMostly cloudy.12 mph80%29.99 "Hg10 mi
8:53 PM40 °FOvercast.10 mph86%30.00 "Hg10 mi
7:53 PM40 °FOvercast.10 mph86%30.00 "Hg10 mi
6:53 PM40 °FOvercast.9 mph86%30.02 "Hg10 mi
5:53 PM40 °FOvercast.12 mph86%30.02 "Hg10 mi
4:53 PM39 °FPassing clouds.9 mph89%30.02 "Hg10 mi
3:53 PM41 °FPartly sunny.8 mph86%30.03 "Hg10 mi
2:53 PM43 °FOvercast.8 mph82%30.03 "Hg10 mi
1:53 PM44 °FOvercast.10 mph76%30.03 "Hg10 mi
12:53 PM45 °FOvercast.10 mph74%30.03 "Hg10 mi
11:53 AM44 °FOvercast.9 mph79%30.04 "Hg10 mi
10:53 AM42 °FOvercast.9 mph82%30.06 "Hg10 mi
9:53 AM41 °FPartly sunny.10 mph86%30.07 "Hg10 mi
8:53 AM38 °FOvercast.6 mph90%30.06 "Hg10 mi
7:53 AM37 °FOvercast.6 mph93%30.05 "Hg10 mi
6:53 AM37 °FOvercast.8 mph93%30.04 "Hg10 mi
5:53 AM37 °FOvercast.6 mph93%30.04 "Hg10 mi
4:53 AM37 °FOvercast.8 mph93%30.04 "Hg10 mi
3:53 AM37 °FLight rain. Fog.7 mph93%30.04 "Hg6 mi
2:53 AM36 °FLight rain. Fog.No wind97%30.04 "Hg5 mi
1:53 AM36 °FLight rain. Fog.No wind92%30.03 "Hg6 mi
12:53 AM38 °FMostly cloudy.No wind90%30.01 "Hg10 mi
Weather by CustomWeather, © 2014

See weather overviewHow to use our weather pages